Simultaneous Nadir Overpasses (SNOs) Predictions

Prediction of SNOs between LANDSAT-8 and METOP-B Satellite Orbit:

Table of predicted SNOs for the next 14.0 days since TLE Epoch: 3/30/2024
Index Date (LANDSAT-8) Time (LANDSAT-8) Lat,Lon (LANDSAT-8) SZA (LANDSAT-8 ) Date (METOP-B) Time (METOP-B) Lat,Lon (METOP-B) SZA (METOP-B ) Distance(km) Time Diff (sec)
1 03/31/2024 16:40:56 81.32, -27.67 78.97 03/31/2024 16:40:54 81.31, -27.65 78.97 0.35 2
2 03/31/2024 17:30:22 -81.33, 140.27 101.01 03/31/2024 17:31:33 -81.33, 140.37 100.97 1.74 71
3 04/03/2024 11:25:45 -81.31,-128.96 102.09 04/03/2024 11:24:36 -81.31,-128.98 102.12 0.67 69
4 04/03/2024 12:15:11 81.32, 38.76 77.91 04/03/2024 12:15:16 81.31, 38.65 77.90 1.87 5
5 04/06/2024 06:59:59 -81.31, -62.46 103.12 04/06/2024 06:58:57 -81.31, -62.40 103.15 1.13 62
6 04/06/2024 07:49:25 81.32, 105.22 76.88 04/06/2024 07:49:37 81.32, 105.21 76.88 0.18 12
7 04/09/2024 02:34:12 -81.30, 3.68 104.19 04/09/2024 02:33:18 -81.30, 3.65 104.22 0.67 54
8 04/09/2024 03:23:37 81.32, 171.71 75.86 04/09/2024 03:23:57 81.32, 171.64 75.86 1.25 20
9 04/11/2024 22:08:24 -81.30, 70.23 105.19 04/11/2024 22:07:38 -81.31, 70.35 105.19 2.09 46



Historial Predications of SNOs between LANDSAT-8 and METOP-B
